Flag for U.S.A. Weather past 2 weeks in Pomona, California, U.S.A.

Now
65 °F

Clear.


Feels Like: 65 °F
Forecast: 61 / 84 °F
Wind: No wind

Location: Chino Airport

Current Time: Aug 23, 2014 at 12:52:46 AM

Latest Report: Aug 22, 2014 at 11:53 PM


Visibility: 9 mi

Pressure: 29.96 "Hg

Humidity: 91%

Dew point: 62 °F

Location of PomonaLocation

Historic Weather in Pomona — Graph

°F

Pomona temperature yesterday

Maximum temperature yesterday: 89 °F (at 1:53 PM)
Minimum temperature yesterday: 65 °F (at 4:53 AM)
Average temperature yesterday: 75 °F

Past Weeks' High & Low Weather Summary

 TemperatureHumidityPressure
High99 °F (Aug 15, 3:58 PM)100% (Aug 10, 4:53 AM)30.03 "Hg (Aug 10, 4:53 AM)
Low58 °F (Aug 15, 5:53 AM)15% (Aug 16, 6:53 PM)29.78 "Hg (Aug 18, 6:53 PM)
Average76 °F62%29.92 "Hg
* Reported Aug 7 11:53 PM — Aug 22 11:53 PM, Pomona, Weather by CustomWeather, © 2014

Note: Actual official high and low records may vary slightly from our data, if they occured in-between our weather recording intervals... More about our weather records

Advertising

Pomona weather history for previous 24 hours

 ConditionsComfort  
Time TempWeatherWind HumidityBarometerVisibility
11:53 PM
Aug 22
65 °FClear.No wind91%29.96 "Hg9 mi
10:53 PM66 °FClear.3 mph84%29.96 "Hg10 mi
9:53 PM69 °FClear.5 mph79%29.97 "Hg10 mi
8:53 PM71 °FClear.14 mph71%29.92 "Hg10 mi
7:53 PM73 °FSunny.16 mph64%29.90 "Hg10 mi
6:53 PM79 °FPassing clouds.13 mph48%29.90 "Hg10 mi
5:53 PM84 °FPassing clouds.15 mph41%29.89 "Hg10 mi
4:53 PM88 °FPassing clouds.15 mph34%29.89 "Hg10 mi
3:53 PM88 °FPassing clouds.15 mph40%29.89 "Hg9 mi
2:53 PM88 °FPassing clouds.9 mph42%29.91 "Hg10 mi
1:53 PM89 °FPassing clouds.10 mph41%29.93 "Hg10 mi
12:53 PM87 °FPassing clouds.10 mph42%29.94 "Hg10 mi
11:53 AM87 °FPassing clouds.9 mph43%29.95 "Hg10 mi
10:53 AM83 °FPassing clouds.3 mph51%29.97 "Hg10 mi
8:53 AM74 °FSunny.5 mph69%29.96 "Hg10 mi
7:53 AM70 °FSunny.No wind79%29.96 "Hg10 mi
6:53 AM66 °FClear.No wind87%29.94 "Hg10 mi
5:53 AM65 °FClear.No wind91%29.93 "Hg7 mi
4:53 AM65 °FClear.3 mph85%29.93 "Hg6 mi
3:53 AM67 °FClear.No wind81%29.94 "Hg9 mi
2:53 AM66 °FClear.3 mph84%29.95 "Hg10 mi
1:53 AM68 °FClear.No wind82%29.94 "Hg8 mi
12:53 AM69 °FClear.No wind79%29.95 "Hg9 mi
Weather by CustomWeather, © 2014

See weather overviewHow to use our weather pages